Regional Weather Roundup
Issued by NWS

Home | Current Version | Previous Version | Graphics & Text | Print | Product List | Glossary On
Versions: 1 2 3 4 5 6 7 8 9 10 11 12 13 14 15 16 17 18 19 20 21 22 23 24 25 26 27 28 29 30 31 32 33 34 35 36 37 38 39 40 41 42 43 44 45 46 47 48 49 50
000
ASUS43 KOAX 241110
RWRNE

WEATHER ROUNDUP FOR NEBRASKA
NATIONAL WEATHER SERVICE OMAHA NE
600 AM CDT MON JUL 24 2017

NOTES: SATELLITE DATA IS BEING USED TO AUGMENT CLOUD COVER ABOVE
       12000 FEET.
       "FAIR" INDICATES FEW OR NO CLOUDS BELOW 12,000 FEET WITH NO
       SIGNIFICANT WEATHER AND/OR OBSTRUCTIONS TO VISIBILITY.


NEZ001>004-019>022-054>056-241200-
NEBRASKA PANHANDLE

CITY           SKY/WX    TMP DP  RH WIND       PRES   REMARKS
SCOTTSBLUFF    PTCLDY    76  56  49 SE9       29.98R
ALLIANCE       CLOUDY    70  54  56 S13       29.99S
CHADRON        PTCLDY    77  51  40 S13       29.89S
GORDON         FAIR      65  56  71 S3        29.96F
KIMBALL        CLEAR     70  59  69 S17       30.06S
SIDNEY         CLEAR     61  55  81 S9        30.06S
$$

NEZ057>060-069>072-079>082-241200-
SOUTHWEST NEBRASKA

CITY           SKY/WX    TMP DP  RH WIND       PRES   REMARKS
NORTH PLATTE   CLEAR     64  63  96 E8        30.02R
IMPERIAL       CLEAR     63  55  75 SW6       30.03R
LEXINGTON      MOCLDY    66  62  86 SE5       30.03S
MCCOOK         CLEAR     65  65 100 E3        30.02R FOG
OGALLALA       CLEAR     62  56  80 CALM      30.03R
$$

NEZ005>010-023>029-035>040-094-241200-
NORTH CENTRAL NEBRASKA

CITY           SKY/WX    TMP DP  RH WIND       PRES   REMARKS
VALENTINE      CLEAR     67  57  70 SE8       29.99F
AINSWORTH      CLEAR     64  59  83 SE8       30.01F
BROKEN BOW     CLEAR     64  60  87 SE6       30.03S
O`NEILL        CLEAR     61  60  95 S5        30.03S
ORD            PTCLDY    63  58  83 SE3       30.02R
THEDFORD       CLEAR     65  63  92 SE5       30.03S
$$

NEZ041-046>049-061>064-073>077-083>087-241200-
SOUTH CENTRAL NEBRASKA

CITY           SKY/WX    TMP DP  RH WIND       PRES   REMARKS
GRAND ISLAND   CLEAR     65  62  90 SE5       30.04R
AURORA         CLEAR     63  61  96 SE5       30.02S
HASTINGS       CLEAR     68  60  75 SE9       30.04R
HEBRON         CLEAR     65  63  93 CALM      30.02R
HOLDREGE       PTCLDY    65  61  89 SE6       30.02S
KEARNEY        CLEAR     64  62  93 SE6       30.03R
YORK           CLEAR     63  63 100 CALM      30.03S
$$

NEZ011>018-030>034-042>045-241200-
NORTHEAST NEBRASKA

CITY           SKY/WX    TMP DP  RH WIND       PRES   REMARKS
NORFOLK        CLEAR     60  57  89 SE5       30.03S
ALBION         PTCLDY    63  60  92 SE5       30.04S
BLAIR          CLEAR     63  60  91 NE5       30.03S
COLUMBUS       CLEAR     60  59  96 CALM      30.04R
FREMONT        CLEAR     62  60  94 CALM      30.04R
TEKAMAH        CLEAR     58  55  90 N5        30.04R
WAYNE          CLEAR     55  55  99 CALM      30.04R
$$

NEZ050>053-065>068-078-088>093-241200-
SOUTHEAST NEBRASKA

CITY           SKY/WX    TMP DP  RH WIND       PRES   REMARKS
LINCOLN        CLEAR     62  60  93 N6        30.03R
OMAHA EPPLEY   CLEAR     63  59  87 N5        30.02S
BEATRICE       CLEAR     65  62  88 E5        30.01R
FALLS CITY     CLEAR     64  61  90 CALM      30.00R
NEBRASKA CITY  CLEAR     63  63 100 CALM      30.02R
PLATTSMOUTH    CLEAR     63  60  89 NE3       30.03R
$$

NEZ044-045-051>053-067-241200-
OMAHA AREA

CITY           SKY/WX    TMP DP  RH WIND       PRES   REMARKS
OMAHA EPPLEY   CLEAR     63  59  87 N5        30.02S
BLAIR          CLEAR     63  60  91 NE5       30.03S
FREMONT        CLEAR     62  60  94 CALM      30.04R
MILLARD        CLEAR     65  62  93 CALM      30.03R
OFFUTT AFB     CLEAR     60  59  95 CALM      30.02R
PLATTSMOUTH    CLEAR     63  60  89 NE3       30.03R
WAHOO          FAIR      58  57  97 CALM      30.03R
$$



USA.gov is the U.S. government's official web portal to all federal, state and local government web resources and services.